Back to catalog

FENGYUN 1C DEB

AliveSSO
NORAD 31074·DEBRIS·🇨🇳 China

Launched May 10, 1999 from Taiyuan Satellite Launch Center

Loading…

Next Passes (next 24 hours)

TLE

FreshSource: Space-Track

Epoch: Sep 13, 2026, 05:01 UTC

1 31074U 99025BFU 26256.20922205  .00002219  00000-0  11059-2 0  9995
2 31074  98.9543 177.4588 0082989 204.7793 154.9385 14.16197977994620

Track FENGYUN 1C DEB in real time with AllMySat

Download on the App Store